TimeMST,TemperatureF,Dew PointF,Humidity,Sea Level PressureIn,VisibilityMPH,Wind Direction,Wind SpeedMPH,Gust SpeedMPH,PrecipitationIn,Events,Conditions,WindDirDegrees,DateUTC
12:51 AM,28.9,18.0,64,29.97,10.0,ESE,5.8,-,N/A,,Clear,110,2012-12-05 07:51:00
1:51 AM,28.9,18.0,64,29.94,10.0,SE,8.1,-,N/A,,Mostly Cloudy,130,2012-12-05 08:51:00
2:51 AM,32.0,19.0,59,29.91,10.0,ESE,6.9,-,N/A,,Overcast,110,2012-12-05 09:51:00
3:51 AM,30.0,19.0,64,29.89,10.0,East,6.9,-,N/A,,Mostly Cloudy,90,2012-12-05 10:51:00
4:51 AM,30.0,19.0,64,29.89,10.0,SE,9.2,-,N/A,,Clear,130,2012-12-05 11:51:00
5:51 AM,30.0,19.9,66,29.87,10.0,East,5.8,-,N/A,,Clear,100,2012-12-05 12:51:00
7:51 AM,33.1,21.9,64,29.82,10.0,Calm,Calm,-,N/A,,Clear,0,2012-12-05 14:51:00
8:51 AM,35.1,23.0,61,29.81,10.0,East,4.6,-,N/A,,Clear,80,2012-12-05 15:51:00
9:51 AM,41.0,26.1,55,29.78,10.0,Calm,Calm,-,N/A,,Clear,0,2012-12-05 16:51:00
10:51 AM,50.0,30.9,48,29.73,10.0,WSW,9.2,-,N/A,,Clear,240,2012-12-05 17:51:00
11:51 AM,52.0,30.0,43,29.71,10.0,WSW,5.8,-,N/A,,Clear,240,2012-12-05 18:51:00
12:51 PM,52.0,30.9,45,29.69,10.0,West,5.8,-,N/A,,Clear,260,2012-12-05 19:51:00
1:51 PM,54.0,30.9,41,29.68,10.0,West,5.8,-,N/A,,Clear,260,2012-12-05 20:51:00
2:51 PM,53.1,30.0,41,29.67,10.0,West,8.1,-,N/A,,Scattered Clouds,270,2012-12-05 21:51:00
3:51 PM,48.9,30.0,48,29.71,10.0,West,8.1,-,N/A,,Overcast,260,2012-12-05 22:51:00
5:51 PM,45.0,28.9,53,29.74,10.0,WNW,11.5,-,N/A,,Clear,290,2012-12-06 00:51:00
6:51 PM,46.9,27.0,46,29.80,10.0,NNW,25.3,36.8,N/A,,Clear,330,2012-12-06 01:51:00
8:51 PM,41.0,19.0,41,29.88,10.0,NW,24.2,35.7,N/A,,Mostly Cloudy,320,2012-12-06 03:51:00
9:51 PM,37.0,19.0,48,29.93,10.0,NW,16.1,24.2,N/A,,Clear,310,2012-12-06 04:51:00
10:51 PM,32.0,18.0,56,29.94,10.0,WNW,12.7,-,N/A,,Clear,300,2012-12-06 05:51:00
11:51 PM,28.9,17.1,61,29.95,10.0,West,15.0,-,N/A,,Clear,280,2012-12-06 06:51:00